MB7UCW-13 Weather Reports


Display with metric or nautical units.
time (UTC)temp
F
wind
direction
speed
MPH
gust
MPH
rain 1hr
in
rain 24hr
in
rain mn
in
humidity
%
barometer
mb
20260502183003 60 287 2.0 4.0 0.00 0.00 0.00 71 1012.1
20260502181503 61 305 2.0 4.0 0.00 0.01 0.00 67 1012.1
20260502163003 63 214 1.0 5.0 0.00 0.08 0.00 61 1012.8
20260502161524 63 197 2.0 5.0 0.00 0.08 0.00 60 1012.8
20260502151503 64 151 2.0 5.0 0.00 0.08 0.00 58 1013.7
20260502123003 64 198 3.0 8.0 0.00 0.08 0.00 60 1015.2
20260502121503 62 252 3.0 8.0 0.00 0.08 0.00 65 1015.4
20260502114503 62 216 4.0 10.0 0.00 0.08 0.00 65 1016.0
20260502113003 62 200 4.0 10.0 0.00 0.08 0.00 67 1016.3
20260502111524 61 164 4.0 8.0 0.00 0.08 0.00 69 1016.4
20260502110024 60 176 3.0 7.0 0.00 0.08 0.00 72 1016.3
20260502104524 59 120 2.0 7.0 0.00 0.08 0.00 74 1016.4
20260502103024 58 256 2.0 4.0 0.00 0.08 0.00 76 1016.7
20260502101503 58 209 2.0 6.0 0.00 0.08 0.00 74 1016.4
20260502091503 57 290 1.0 5.0 0.00 0.08 0.00 80 1017.4
20260502071503 50 194 2.0 6.0 0.00 0.08 0.00 96 1017.5
20260502070003 49 204 1.0 2.0 0.00 0.08 0.00 96 1017.4
20260502064503 47 175 0.0 2.0 0.00 0.08 0.00 96 1017.5
20260502063024 46 151 0.0 2.0 0.00 0.08 0.00 96 1017.5
20260502061503 46 263 0.0 1.0 0.00 0.08 0.00 96 1017.5
20260502060003 46 311 0.0 2.0 0.00 0.08 0.00 95 1017.4
20260502054503 46 293 1.0 2.0 0.00 0.08 0.00 95 1017.3
20260502053003 46 24 0.0 2.0 0.00 0.08 0.00 96 1017.2
20260502051502 45 345 1.0 2.0 0.00 0.08 0.00 95 1017.3
20260502050003 45 243 1.0 3.0 0.00 0.08 0.00 95 1017.2
20260502044503 45 219 1.0 2.0 0.00 0.08 0.00 95 1017.3
20260502043003 45 210 1.0 3.0 0.00 0.08 0.00 95 1017.3
20260502041503 45 211 2.0 3.0 0.00 0.08 0.00 95 1017.3
20260502040003 45 210 2.0 3.0 0.00 0.08 0.00 95 1017.4
20260502034503 45 210 1.0 3.0 0.00 0.08 0.00 95 1017.5
20260502033003 46 211 1.0 4.0 0.00 0.08 0.00 95 1017.6
20260502031503 46 211 1.0 3.0 0.00 0.08 0.00 95 1017.6
20260502030024 46 211 1.0 4.0 0.00 0.08 0.00 95 1017.6
20260502024503 46 211 2.0 3.0 0.00 0.08 0.00 95 1017.6
20260502021503 47 211 1.0 3.0 0.00 0.08 0.00 95 1017.7
20260502020003 47 211 2.0 3.0 0.00 0.08 0.00 95 1017.9
20260502014524 48 211 1.0 4.0 0.00 0.08 0.00 95 1018.1
20260502013003 48 211 3.0 6.0 0.00 0.08 0.00 95 1018.2
20260502011503 48 213 4.0 6.0 0.00 0.08 0.00 95 1018.3
20260502010003 49 259 1.0 4.0 0.00 0.08 0.00 95 1018.4
20260502004524 49 259 2.0 4.0 0.00 0.08 0.00 95 1018.5
20260502003003 50 259 2.0 4.0 0.00 0.08 0.00 95 1018.7
20260502001503 51 259 2.0 4.0 0.00 0.08 0.00 95 1018.7
20260502000003 51 260 1.0 4.0 0.00 0.08 0.00 95 1018.8
20260501234503 51 260 2.0 3.0 0.00 0.08 0.00 94 1018.9
20260501233024 51 260 1.0 3.0 0.00 0.08 0.00 94 1018.9
20260501231503 52 260 1.0 2.0 0.00 0.08 0.00 94 1018.9
20260501230003 52 260 1.0 2.0 0.00 0.08 0.00 94 1018.9
20260501224524 52 260 0.0 1.0 0.00 0.08 0.08 94 1019.0
20260501223003 53 260 0.0 1.0 0.00 0.08 0.08 94 1018.8
20260501221503 53 260 0.0 1.0 0.00 0.08 0.08 94 1019.0
20260501220003 54 0 0.0 1.0 0.00 0.08 0.08 94 1019.0
20260501214503 54 260 0.0 1.0 0.00 0.08 0.08 94 1019.0
20260501213003 55 260 0.0 1.0 0.00 0.08 0.08 94 1018.8
20260501211524 56 260 1.0 2.0 0.00 0.08 0.08 93 1018.8
20260501210003 56 260 0.0 2.0 0.00 0.08 0.08 94 1019.0
20260501204503 57 260 1.0 2.0 0.00 0.08 0.08 94 1019.2
20260501203003 57 260 0.0 2.0 0.00 0.08 0.08 93 1019.1
20260501201503 57 260 0.0 2.0 0.00 0.08 0.08 93 1019.1
20260501200003 57 260 0.0 2.0 0.00 0.08 0.08 93 1019.2
20260501194503 57 260 0.0 2.0 0.00 0.08 0.08 93 1019.1
20260501193003 57 260 1.0 3.0 0.00 0.08 0.08 92 1019.1
20260501191503 57 260 1.0 3.0 0.01 0.08 0.08 92 1019.0
20260501190003 58 296 1.0 3.0 0.02 0.08 0.08 92 1019.0
20260501184504 58 295 2.0 4.0 0.06 0.08 0.08 91 1018.9